Dole Colombia — C6QZ5 — position and weather

sailwx.info

Track history (hours):
 
Tides and Currents Weather Stations Pressure Air Temp Water Temp Dewpoint Dewpoint Depression Visibility Wind Speed Wind Dir Waves Ship Positions

Dole Colombia

Last reported at 2015-Feb-26 09:16 UTC. Time now 2015-Feb-28 20:53 UTC.
Position N 38°35' W 074°52'.

Length 205 m; draft 8.6 m.

Type: Ship. MMSI: 309403000.

Date/timePositionNaut miles runAvg speedWind from/ knotsBaromVisibWave heightAir tempDewpointWater temp
2015-Feb-26 09:16N 38°35' W 074°52'7 9.6
2015-Feb-26 08:33N 38°41' W 074°57'10 9.5
2015-Feb-26 07:31N 38°49' W 075°04'2412.3
2015-Feb-26 05:33N 39°11' W 075°17'1615.8
2015-Feb-26 04:33N 39°24' W 075°29'1613.8
2015-Feb-26 03:24N 39°39' W 075°33'4 4.6
2015-Feb-26 02:34N 39°43' W 075°31'0 0.0
2015-Feb-26 01:33N 39°43' W 075°31'0 0.0
2015-Feb-26 00:33N 39°43' W 075°31'0 0.0
2015-Feb-25 23:33N 39°43' W 075°31'0 0.0
2015-Feb-25 22:33N 39°43' W 075°31'0 0.0
2015-Feb-25 21:33N 39°43' W 075°31'0 0.0
2015-Feb-25 20:33N 39°43' W 075°31'0 0.0
2015-Feb-25 19:33N 39°43' W 075°31'0 0.0
2015-Feb-25 18:33N 39°43' W 075°31'0 0.0
2015-Feb-25 17:33N 39°43' W 075°31'0 0.0
2015-Feb-25 16:33N 39°43' W 075°31'0 0.0
2015-Feb-25 15:33N 39°43' W 075°31'0 0.0
2015-Feb-25 14:33N 39°43' W 075°31'0 0.0
2015-Feb-25 13:33N 39°43' W 075°31'0 0.0
2015-Feb-25 12:33N 39°43' W 075°31'0 0.0
2015-Feb-25 11:33N 39°43' W 075°31'0 0.0
2015-Feb-25 10:33N 39°43' W 075°31'0 0.0
2015-Feb-25 09:33N 39°43' W 075°31'0 0.0
2015-Feb-25 08:33N 39°43' W 075°31'0 0.0
2015-Feb-25 07:33N 39°43' W 075°31'0 0.0
2015-Feb-25 06:33N 39°43' W 075°31'0 0.0
2015-Feb-25 05:33N 39°43' W 075°31'0 0.0
2015-Feb-25 04:33N 39°43' W 075°31'0 0.0
2015-Feb-25 03:33N 39°43' W 075°31'0 0.0
2015-Feb-25 02:33N 39°43' W 075°31'0 0.0
2015-Feb-25 01:33N 39°43' W 075°31'0 0.0
2015-Feb-25 00:33N 39°43' W 075°31'0 0.0
2015-Feb-24 23:33N 39°43' W 075°31'0 0.0
2015-Feb-24 22:33N 39°43' W 075°31'0 0.0
2015-Feb-24 21:33N 39°43' W 075°31'0 0.0
2015-Feb-24 20:33N 39°43' W 075°31'0 0.0
2015-Feb-24 19:33N 39°43' W 075°31'0 0.0
2015-Feb-24 18:33N 39°43' W 075°31'0 0.0
2015-Feb-24 17:33N 39°43' W 075°31'0 0.0
2015-Feb-24 16:33N 39°43' W 075°31'0 0.0
2015-Feb-24 15:33N 39°43' W 075°31'0 0.0
2015-Feb-24 14:33N 39°43' W 075°31'0 0.0
2015-Feb-24 13:33N 39°43' W 075°31'0 0.0
2015-Feb-24 12:33N 39°43' W 075°31'0 0.0
2015-Feb-24 11:33N 39°43' W 075°31'0 0.0
2015-Feb-24 10:33N 39°43' W 075°31'0 0.0
2015-Feb-24 09:33N 39°43' W 075°31'0 0.0
2015-Feb-24 08:33N 39°43' W 075°31'0 0.0
2015-Feb-24 07:33N 39°43' W 075°31'0 0.0
2015-Feb-24 06:33N 39°43' W 075°31'0 0.0
2015-Feb-24 05:33N 39°43' W 075°31'0 0.0
2015-Feb-24 04:33N 39°43' W 075°31'0 0.0
2015-Feb-24 03:33N 39°43' W 075°31'0 0.0
2015-Feb-24 02:33N 39°43' W 075°31'0 0.0
2015-Feb-24 01:30N 39°43' W 075°31'0 0.0
2015-Feb-24 00:33N 39°43' W 075°31'0 0.0
2015-Feb-23 23:33N 39°43' W 075°31'0 0.0
2015-Feb-23 22:33N 39°43' W 075°31'0 0.0
2015-Feb-23 21:33N 39°43' W 075°31'1 1.2
2015-Feb-23 20:33N 39°42' W 075°31'1110.9
2015-Feb-23 19:33N 39°31' W 075°33'1514.6
2015-Feb-23 18:34N 39°19' W 075°23'1716.7
2015-Feb-23 17:34N 39°05' W 075°11'  
Track history (hours):
 
Tides and Currents Weather Stations Pressure Air Temp Water Temp Dewpoint Dewpoint Depression Visibility Wind Speed Wind Dir Waves Ship Positions

Dole Colombia

Last reported at 2015-Feb-26 09:16 UTC. Time now 2015-Feb-28 20:53 UTC.
Position N 38°35' W 074°52'.

Length 205 m; draft 8.6 m.

Type: Ship. MMSI: 309403000.

Date/timePositionNaut miles runAvg speedWind from/ knotsBaromVisibWave heightAir tempDewpointWater temp
2015-Feb-26 09:16N 38°35' W 074°52'7 9.6
2015-Feb-26 08:33N 38°41' W 074°57'10 9.5
2015-Feb-26 07:31N 38°49' W 075°04'2412.3
2015-Feb-26 05:33N 39°11' W 075°17'1615.8
2015-Feb-26 04:33N 39°24' W 075°29'1613.8
2015-Feb-26 03:24N 39°39' W 075°33'4 4.6
2015-Feb-26 02:34N 39°43' W 075°31'0 0.0
2015-Feb-26 01:33N 39°43' W 075°31'0 0.0
2015-Feb-26 00:33N 39°43' W 075°31'0 0.0
2015-Feb-25 23:33N 39°43' W 075°31'0 0.0
2015-Feb-25 22:33N 39°43' W 075°31'0 0.0
2015-Feb-25 21:33N 39°43' W 075°31'0 0.0
2015-Feb-25 20:33N 39°43' W 075°31'0 0.0
2015-Feb-25 19:33N 39°43' W 075°31'0 0.0
2015-Feb-25 18:33N 39°43' W 075°31'0 0.0
2015-Feb-25 17:33N 39°43' W 075°31'0 0.0
2015-Feb-25 16:33N 39°43' W 075°31'0 0.0
2015-Feb-25 15:33N 39°43' W 075°31'0 0.0
2015-Feb-25 14:33N 39°43' W 075°31'0 0.0
2015-Feb-25 13:33N 39°43' W 075°31'0 0.0
2015-Feb-25 12:33N 39°43' W 075°31'0 0.0
2015-Feb-25 11:33N 39°43' W 075°31'0 0.0
2015-Feb-25 10:33N 39°43' W 075°31'0 0.0
2015-Feb-25 09:33N 39°43' W 075°31'0 0.0
2015-Feb-25 08:33N 39°43' W 075°31'0 0.0
2015-Feb-25 07:33N 39°43' W 075°31'0 0.0
2015-Feb-25 06:33N 39°43' W 075°31'0 0.0
2015-Feb-25 05:33N 39°43' W 075°31'0 0.0
2015-Feb-25 04:33N 39°43' W 075°31'0 0.0
2015-Feb-25 03:33N 39°43' W 075°31'0 0.0
2015-Feb-25 02:33N 39°43' W 075°31'0 0.0
2015-Feb-25 01:33N 39°43' W 075°31'0 0.0
2015-Feb-25 00:33N 39°43' W 075°31'0 0.0
2015-Feb-24 23:33N 39°43' W 075°31'0 0.0
2015-Feb-24 22:33N 39°43' W 075°31'0 0.0
2015-Feb-24 21:33N 39°43' W 075°31'0 0.0
2015-Feb-24 20:33N 39°43' W 075°31'0 0.0
2015-Feb-24 19:33N 39°43' W 075°31'0 0.0
2015-Feb-24 18:33N 39°43' W 075°31'0 0.0
2015-Feb-24 17:33N 39°43' W 075°31'0 0.0
2015-Feb-24 16:33N 39°43' W 075°31'0 0.0
2015-Feb-24 15:33N 39°43' W 075°31'0 0.0
2015-Feb-24 14:33N 39°43' W 075°31'0 0.0
2015-Feb-24 13:33N 39°43' W 075°31'0 0.0
2015-Feb-24 12:33N 39°43' W 075°31'0 0.0
2015-Feb-24 11:33N 39°43' W 075°31'0 0.0
2015-Feb-24 10:33N 39°43' W 075°31'0 0.0
2015-Feb-24 09:33N 39°43' W 075°31'0 0.0
2015-Feb-24 08:33N 39°43' W 075°31'0 0.0
2015-Feb-24 07:33N 39°43' W 075°31'0 0.0
2015-Feb-24 06:33N 39°43' W 075°31'0 0.0
2015-Feb-24 05:33N 39°43' W 075°31'0 0.0
2015-Feb-24 04:33N 39°43' W 075°31'0 0.0
2015-Feb-24 03:33N 39°43' W 075°31'0 0.0
2015-Feb-24 02:33N 39°43' W 075°31'0 0.0
2015-Feb-24 01:30N 39°43' W 075°31'0 0.0
2015-Feb-24 00:33N 39°43' W 075°31'0 0.0
2015-Feb-23 23:33N 39°43' W 075°31'0 0.0
2015-Feb-23 22:33N 39°43' W 075°31'0 0.0
2015-Feb-23 21:33N 39°43' W 075°31'1 1.2
2015-Feb-23 20:33N 39°42' W 075°31'1110.9
2015-Feb-23 19:33N 39°31' W 075°33'1514.6
2015-Feb-23 18:34N 39°19' W 075°23'1716.7
2015-Feb-23 17:34N 39°05' W 075°11'  

Dump ship's entire track history